When you browse on this site, cookies collect data to enhance your experience and personalize the content and advertising you see.
Visit our Privacy Policy to learn more. By continuing to use the site, you agree to this use of cookies and data.

Hourly Weather Barcelona

Today, 29 September, Tuesday

Time Temperature Precipitation Wind Pressure Humidity
00:00 +26°C° 0 mm 2 mps 757 mmHg 92%
01:00 +26°C° 0 mm 2 mps 757 mmHg 92%
02:00 +26°C° 0 mm 1 mps 757 mmHg 92%
03:00 +26°C° 0.1 mm 2 mps 757 mmHg 93%
04:00 +25°C° 0.1 mm 2 mps 757 mmHg 94%
05:00 +25°C° 0.1 mm 2 mps 756 mmHg 95%
06:00 +26°C° 0 mm 2 mps 757 mmHg 94%
07:00 +26°C° 0 mm 2 mps 757 mmHg 93%
08:00 +27°C° 0 mm 3 mps 758 mmHg 92%
09:00 +29°C° 0 mm 2 mps 758 mmHg 83%
10:00 +31°C° 0 mm 2 mps 758 mmHg 75%
11:00 +34°C° 0 mm 2 mps 759 mmHg 67%
12:00 +34°C° 0.1 mm 2 mps 758 mmHg 66%
13:00 +34°C° 0.1 mm 3 mps 757 mmHg 65%
14:00 +35°C° 0.1 mm 3 mps 756 mmHg 64%
15:00 +34°C° 0.2 mm 3 mps 756 mmHg 69%
16:00 +33°C° 0.2 mm 3 mps 756 mmHg 75%
17:00 +32°C° 0.2 mm 2 mps 756 mmHg 80%
18:00 +30°C° 0 mm 2 mps 756 mmHg 84%
19:00 +29°C° 0 mm 2 mps 756 mmHg 87%
20:00 +28°C° 0 mm 2 mps 757 mmHg 91%
21:00 +27°C° 0 mm 2 mps 757 mmHg 91%
22:00 +27°C° 0 mm 1 mps 758 mmHg 91%
23:00 +26°C° 0 mm 1 mps 758 mmHg 92%

Tomorrow, 30 September, Wednesday

Time Temperature Precipitation Wind Pressure Humidity
00:00 +26°C° 0 mm 1 mps 758 mmHg 92%
01:00 +26°C° 0 mm 1 mps 757 mmHg 92%
02:00 +25°C° 0 mm 1 mps 757 mmHg 92%
03:00 +25°C° 0 mm 1 mps 757 mmHg 92%
04:00 +25°C° 0 mm 1 mps 757 mmHg 92%
05:00 +24°C° 0 mm 2 mps 757 mmHg 91%
06:00 +25°C° 0 mm 2 mps 758 mmHg 89%
07:00 +26°C° 0 mm 2 mps 758 mmHg 87%
08:00 +27°C° 0 mm 2 mps 759 mmHg 85%
09:00 +29°C° 0 mm 2 mps 759 mmHg 77%
10:00 +31°C° 0 mm 2 mps 759 mmHg 69%
11:00 +35°C° 0 mm 2 mps 759 mmHg 60%
12:00 +35°C° 0.1 mm 2 mps 758 mmHg 58%
13:00 +36°C° 0.1 mm 2 mps 757 mmHg 55%
14:00 +36°C° 0.1 mm 2 mps 756 mmHg 52%
15:00 +35°C° 0.4 mm 2 mps 756 mmHg 62%
16:00 +32°C° 0.4 mm 2 mps 756 mmHg 71%
17:00 +31°C° 0.4 mm 2 mps 756 mmHg 80%
18:00 +30°C° 0.2 mm 3 mps 756 mmHg 82%
19:00 +29°C° 0.2 mm 3 mps 756 mmHg 83%
20:00 +27°C° 0.2 mm 3 mps 757 mmHg 85%
21:00 +27°C° 0.1 mm 3 mps 757 mmHg 86%
22:00 +27°C° 0.1 mm 3 mps 757 mmHg 88%
23:00 +26°C° 0.1 mm 3 mps 757 mmHg 89%

Day after tomorrow, 1 October, Thursday

Time Temperature Precipitation Wind Pressure Humidity
00:00 +26°C° 0 mm 2 mps 757 mmHg 89%
01:00 +26°C° 0 mm 2 mps 756 mmHg 90%
02:00 +26°C° 0 mm 2 mps 756 mmHg 91%
03:00 +25°C° 0 mm 1 mps 756 mmHg 91%
04:00 +25°C° 0 mm 1 mps 756 mmHg 92%
05:00 +25°C° 0 mm 1 mps 756 mmHg 93%
06:00 +26°C° 0 mm 1 mps 757 mmHg 89%
07:00 +27°C° 0 mm 1 mps 757 mmHg 86%
08:00 +29°C° 0 mm 1 mps 757 mmHg 83%
09:00 +31°C° 0 mm 1 mps 757 mmHg 76%
10:00 +33°C° 0 mm 1 mps 758 mmHg 69%
11:00 +35°C° 0 mm 1 mps 758 mmHg 63%
12:00 +34°C° 0.3 mm 1 mps 757 mmHg 65%
13:00 +34°C° 0.3 mm 1 mps 756 mmHg 66%
14:00 +34°C° 0.3 mm 1 mps 755 mmHg 68%
15:00 +33°C° 0.3 mm 1 mps 755 mmHg 74%
16:00 +31°C° 0.3 mm 1 mps 755 mmHg 80%
17:00 +30°C° 0.3 mm 1 mps 755 mmHg 86%
18:00 +29°C° 0 mm 2 mps 755 mmHg 87%
19:00 +28°C° 0 mm 2 mps 755 mmHg 87%
20:00 +27°C° 0 mm 2 mps 756 mmHg 88%
21:00 +27°C° 0 mm 2 mps 756 mmHg 89%
22:00 +27°C° 0 mm 2 mps 756 mmHg 90%
23:00 +26°C° 0 mm 2 mps 757 mmHg 91%

2 October, Friday

Time Temperature Precipitation Wind Pressure Humidity
00:00 +26°C° 0 mm 2 mps 756 mmHg 92%
01:00 +25°C° 0 mm 2 mps 756 mmHg 92%
02:00 +25°C° 0 mm 2 mps 756 mmHg 93%
03:00 +25°C° 0 mm 2 mps 756 mmHg 92%
04:00 +24°C° 0 mm 2 mps 756 mmHg 91%
05:00 +24°C° 0 mm 2 mps 756 mmHg 90%
06:00 +25°C° 0 mm 2 mps 756 mmHg 87%
07:00 +26°C° 0 mm 2 mps 757 mmHg 83%
08:00 +28°C° 0 mm 2 mps 757 mmHg 80%
09:00 +30°C° 0 mm 2 mps 757 mmHg 73%
10:00 +33°C° 0 mm 3 mps 757 mmHg 66%
11:00 +35°C° 0 mm 3 mps 757 mmHg 60%
12:00 +35°C° 0.2 mm 3 mps 757 mmHg 60%
13:00 +35°C° 0.2 mm 3 mps 756 mmHg 59%
14:00 +36°C° 0.2 mm 3 mps 755 mmHg 59%
15:00 +34°C° 0.8 mm 2 mps 755 mmHg 69%
16:00 +31°C° 0.8 mm 2 mps 755 mmHg 79%
17:00 +30°C° 0.8 mm 2 mps 755 mmHg 88%
18:00 +29°C° 0.2 mm 2 mps 755 mmHg 88%
19:00 +28°C° 0.2 mm 2 mps 756 mmHg 88%
20:00 +27°C° 0.2 mm 1 mps 756 mmHg 89%
21:00 +27°C° 0 mm 1 mps 757 mmHg 89%
22:00 +26°C° 0 mm 1 mps 757 mmHg 89%
23:00 +26°C° 0 mm 1 mps 757 mmHg 90%

3 October, Saturday

Time Temperature Precipitation Wind Pressure Humidity
00:00 +26°C° 0 mm 1 mps 757 mmHg 90%
01:00 +25°C° 0 mm 1 mps 757 mmHg 91%
02:00 +25°C° 0 mm 2 mps 756 mmHg 92%
03:00 +25°C° 0 mm 2 mps 757 mmHg 91%
04:00 +25°C° 0 mm 1 mps 757 mmHg 90%
05:00 +25°C° 0 mm 1 mps 757 mmHg 89%
06:00 +26°C° 0 mm 1 mps 757 mmHg 88%
07:00 +26°C° 0 mm 1 mps 758 mmHg 86%
08:00 +27°C° 0 mm 1 mps 758 mmHg 84%
09:00 +29°C° 0 mm 1 mps 758 mmHg 76%
10:00 +31°C° 0 mm 1 mps 758 mmHg 68%
11:00 +34°C° 0 mm 1 mps 758 mmHg 60%
12:00 +35°C° 0.1 mm 2 mps 757 mmHg 60%
13:00 +35°C° 0.1 mm 2 mps 757 mmHg 59%
14:00 +36°C° 0.1 mm 2 mps 756 mmHg 59%
15:00 +34°C° 0.4 mm 2 mps 756 mmHg 68%
16:00 +32°C° 0.4 mm 2 mps 756 mmHg 76%
17:00 +30°C° 0.4 mm 2 mps 755 mmHg 85%
18:00 +29°C° 0 mm 2 mps 756 mmHg 86%
19:00 +28°C° 0 mm 2 mps 756 mmHg 88%
20:00 +27°C° 0 mm 2 mps 757 mmHg 89%
21:00 +27°C° 0 mm 2 mps 757 mmHg 90%
22:00 +27°C° 0 mm 2 mps 758 mmHg 91%
23:00 +27°C° 0 mm 1 mps 758 mmHg 91%

4 October, Sunday

Time Temperature Precipitation Wind Pressure Humidity
00:00 +26°C° 0 mm 1 mps 757 mmHg 92%
01:00 +26°C° 0 mm 1 mps 757 mmHg 93%
02:00 +25°C° 0 mm 1 mps 756 mmHg 93%
03:00 +25°C° 0 mm 1 mps 756 mmHg 93%
04:00 +25°C° 0 mm 1 mps 756 mmHg 93%
05:00 +25°C° 0 mm 1 mps 756 mmHg 93%
06:00 +26°C° 0 mm 1 mps 757 mmHg 90%
07:00 +27°C° 0 mm 1 mps 758 mmHg 87%
08:00 +28°C° 0 mm 1 mps 758 mmHg 85%
09:00 +30°C° 0.1 mm 1 mps 758 mmHg 78%
10:00 +32°C° 0.1 mm 1 mps 758 mmHg 71%
11:00 +34°C° 0.1 mm 1 mps 758 mmHg 64%
12:00 +34°C° 0.5 mm 1 mps 757 mmHg 66%
13:00 +34°C° 0.5 mm 1 mps 757 mmHg 67%
14:00 +34°C° 0.5 mm 1 mps 756 mmHg 69%
15:00 +34°C° 0.5 mm 2 mps 756 mmHg 74%
16:00 +32°C° 0.5 mm 2 mps 756 mmHg 78%
17:00 +30°C° 0.5 mm 2 mps 756 mmHg 83%
18:00 +29°C° 0.1 mm 2 mps 756 mmHg 85%
19:00 +29°C° 0.1 mm 2 mps 757 mmHg 86%
20:00 +28°C° 0.1 mm 3 mps 757 mmHg 87%
21:00 +27°C° 0.1 mm 3 mps 757 mmHg 88%
22:00 +27°C° 0.1 mm 3 mps 758 mmHg 89%
23:00 +27°C° 0.1 mm 3 mps 758 mmHg 90%
Show more